Weather in Shariff Aguak

Philippines     6°53′44″N   124°25′41″E
temp.,
°C
wind,
m/s
gust,
m/s
humid.,
%
clouds,
%
prec.,
mm/h
press.,
hPa
HPBL,
m
2 march, tue
tue223:00+25s019186 1.8 101339
02:00+23e119557 7.3 101124
05:00+23s11952 0.3 101224
08:00+26e137913 0.3 1013401
11:00+34e13488 0.0 10131365
14:00+35e134254 0.0 10101887
17:00+31nw0360100 0.1 1010294
20:00+26ese237985 0.6 101283
3 march, wed
wed323:00+24ese118759 0.0 101325
02:00+23ese018935 0.0 101124
05:00+22ese11930 0.0 101126
08:00+26ene127542 0.0 1012399
11:00+32e255049 0.0 10121492
14:00+34se254168 0.0 10092180
17:00+31ese365470 0.1 1010524
20:00+25se138252 0.1 101292
4 march, thu
thu423:00+23se018529 0.0 101327
02:00+21ene118338 0.0 101248
05:00+21s01820 0.0 101227
08:00+26ese13640 0.0 1013404
11:00+32e24490 0.0 10121407
14:00+33se154628 0.0 10091769
17:00+31sse235573 0.0 1009549
20:00+27ne116966 0.1 101226
5 march, fri
fri523:00+24se118510 0.1 101324
02:00+23ene11835 0.1 101144
05:00+22sse11850 0.0 101135
08:00+27ese13670 0.0 1013424
11:00+33ene36462 0.0 10131686
14:00+35ene484031 0.0 10092374
17:00+32e38478 0.1 10101220
20:00+25se127048 0.1 101124
6 march, sat
sat623:00+23ene117114 0.0 101235
02:00+22ese01827 0.0 101142
05:00+21sse11850 0.0 101132
08:00+26ese126417 0.0 1013347
11:00+33e244636 0.0 10121369
14:00+35sse244126 0.0 10091804
17:00+29nw245773 0.0 1010189
20:00+26n116845 0.0 101225